GFSMW_con_lsi_132.txt.gz
Lid_Strength_Index
5 5 3 4 4 4 3 2 3 3 3 3 3 3 3 2 3 2 2 2 2 2 3 2 3 2 2 2 3 4 4 4 4 4 3 5 7 6 6 5 6 7 8
6 6 4 3 4 3 3 3 2 3 3 3 2 3 3 3 2 2 2 2 2 2 2 2 2 2 2 3 3 4 5 4 4 5 4 5 6 8 8 7 6 7 8
7 6 6 4 3 3 3 3 2 2 3 3 3 4 4 4 4 4 3 2 2 2 1 2 1 2 2 2 3 3 4 5 4 3 3 6 6 8 10 9 7 7 8
9 7 6 5 4 3 3 2 3 2 2 2 3 3 3 3 3 2 3 3 2 2 1 1 1 2 2 2 2 2 3 4 3 4 2 3 6 8 10 10 9 8 9
11 9 6 5 4 3 4 4 3 3 2 1 2 2 3 2 2 3 3 3 3 1 1 1 1 1 2 2 2 3 3 3 2 3 5 4 6 7 9 7 12 10 9
10 10 8 5 4 3 3 4 4 4 2 1 1 2 2 2 3 3 3 3 3 3 2 2 1 1 1 2 2 2 3 3 2 2 3 4 6 6 8 10 12 11 10
11 10 11 7 4 4 3 4 4 4 3 3 2 1 1 2 2 3 3 3 3 3 2 2 2 2 2 2 2 2 2 3 3 2 2 3 3 3 5 5 6 12 11
9 9 10 8 6 5 4 3 5 4 4 3 3 2 2 2 2 2 2 3 3 3 2 2 2 2 2 1 2 2 2 2 2 2 2 2 3 3 3 4 5 9 13
11 10 10 10 7 6 4 3 4 4 3 3 3 2 2 2 2 2 2 2 3 3 3 3 2 2 2 2 2 2 2 2 2 2 2 2 2 2 3 3 4 5 6
11 12 11 10 9 6 4 3 2 3 3 3 3 2 2 2 2 3 3 3 3 3 3 4 3 3 3 3 3 2 2 2 2 2 3 3 2 2 2 3 4 5 5
11 11 12 12 10 9 6 4 3 3 4 4 3 3 3 3 3 3 4 3 4 4 4 4 4 3 3 2 2 2 2 3 3 3 3 3 3 3 3 5 5 6 6
12 13 13 13 13 12 8 6 5 4 3 4 4 4 4 5 4 4 3 5 4 4 4 3 3 2 2 2 2 2 3 3 3 3 4 4 4 4 4 6 7 7 7
13 14 14 13 13 13 12 9 8 6 6 5 5 6 5 5 5 4 5 5 5 4 3 3 2 2 2 2 2 2 3 4 4 4 4 4 6 6 7 7 7 8 10
13 13 14 13 13 14 13 13 11 9 8 7 6 6 6 6 7 7 6 6 5 5 4 5 4 5 5 5 6 6 6 6 6 6 6 7 7 7 7 8 8 9 11
14 13 13 13 14 14 13 13 12 12 12 11 10 10 10 11 11 11 10 7 7 7 7 7 7 8 7 8 8 9 8 8 8 8 8 7 8 9 8 8 9 10 12
13 13 13 13 13 13 13 12 12 12 11 11 11 11 11 12 12 12 12 10 10 10 10 10 10 10 10 9 9 9 8 8 9 9 9 9 11 10 9 9 8 9 11
12 13 13 13 13 13 12 12 12 12 11 12 13 13 13 12 13 13 13 13 13 13 12 12 11 11 10 10 10 10 10 9 10 10 11 11 11 12 11 10 9 9 9
12 12 13 13 13 12 12 12 12 12 12 13 13 14 13 14 14 14 14 14 14 13 13 12 11 11 12 10 10 10 11 11 10 11 11 11 11 11 12 12 12 12 11
11 10 11 13 13 12 12 12 13 13 13 14 14 14 14 15 15 16 15 14 14 13 13 13 13 13 13 11 10 11 12 12 12 12 12 12 12 11 10 12 12 13 13
12 11 12 12 12 12 12 13 14 14 14 14 14 15 15 16 16 15 15 15 14 14 13 14 13 14 14 11 10 11 13 13 14 15 13 12 11 10 10 12 12 13 13
13 13 13 12 12 13 14 14 14 14 14 15 16 16 17 16 16 15 15 14 14 14 14 14 14 14 14 13 11 10 13 13 13 13 14 14 11 10 10 10 12 12 12
14 13 13 14 14 14 14 14 15 16 17 16 16 15 15 15 15 13 14 13 13 13 14 14 15 15 16 12 11 10 10 10 12 12 13 14 11 11 10 11 10 10 11
14 15 14 15 15 16 15 15 16 16 16 15 15 15 14 14 14 13 13 13 13 14 14 14 15 17 17 17 12 11 11 11 12 12 12 11 11 11 11 10 10 12 13
16 17 16 16 17 19 17 17 16 16 15 15 15 15 15 14 13 13 13 13 14 15 15 15 15 15 19 18 17 16 13 13 12 12 12 12 11 11 12 15 13 12 12
19 18 16 16 18 18 17 17 16 15 16 16 16 16 15 15 16 16 17 17 20 17 19 21 17 16 16 18 13 14 15 13 12 13 13 14 14 14 14 15 14 14 13
19 19 18 18 19 19 19 18 17 15 16 16 17 17 17 17 16 15 15 13 13 12 12 13 16 20 13 12 12 11 11 11 11 13 14 14 14 15 15 15 14 14 13

GFSMW_con_lsi_138.txt.gz
Lid_Strength_Index
4 3 2 1 1 1 1 1 1 0 0 1 1 1 1 0 -0 -1 -1 -1 -1 -1 -1 -1 -1 -1 -0 -0 -0 -0 0 1 -0 1 2 1 0 1 1 1 1 2 2
5 4 3 2 2 2 1 1 1 0 0 0 0 1 0 0 -0 -1 -1 -1 -1 -1 -1 -1 -1 -1 -0 -0 -0 0 1 1 0 2 2 4 2 2 2 1 2 2 1
5 5 4 3 2 2 2 1 1 1 0 0 0 0 0 0 1 0 -0 -1 -1 -1 -1 -1 -1 -1 -1 0 -0 0 1 2 1 0 2 5 5 3 2 2 2 2 1
5 4 4 4 3 2 1 1 1 1 0 0 1 1 2 2 1 1 -0 -0 -1 -1 -1 -1 -1 -1 -1 -0 -0 -0 0 1 2 1 1 1 2 5 5 2 3 2 2
6 6 5 4 3 2 2 1 1 1 1 0 1 1 2 1 1 0 0 0 -0 -1 -1 -1 -1 -0 -0 1 -0 -0 0 0 1 2 2 2 2 2 4 5 3 2 3
6 6 5 4 4 2 2 1 1 1 1 1 1 1 1 1 1 1 1 1 0 0 0 -0 0 1 0 -0 -0 -0 -0 0 0 1 1 2 3 3 3 4 4 3 2
6 6 6 5 5 3 2 2 2 2 1 1 1 1 1 1 1 1 1 1 1 1 0 0 1 1 -0 -1 -1 -0 0 0 1 1 1 1 1 1 2 3 4 4 2
5 5 5 6 6 4 3 2 2 2 1 1 1 1 1 1 1 1 1 1 1 1 1 1 0 -0 -0 -0 -0 -0 0 0 0 1 1 1 1 1 1 2 3 5 4
5 5 5 6 6 5 4 2 2 2 1 1 1 1 1 1 1 1 1 1 1 0 0 -0 0 0 0 0 0 1 1 0 0 1 1 1 1 1 1 1 2 4 6
5 4 5 6 6 6 5 2 2 2 1 1 1 1 1 1 1 1 1 1 0 0 0 1 0 0 0 0 0 1 1 1 1 2 2 1 2 1 1 2 3 3 4
5 5 5 5 6 6 6 4 2 2 2 1 1 1 1 1 1 1 1 1 0 0 0 1 1 1 1 1 1 1 1 2 2 1 2 2 1 2 3 3 3 3 3
7 6 6 5 6 7 7 5 3 2 2 1 1 1 1 1 1 1 1 0 1 0 1 1 1 1 1 1 1 2 2 2 2 2 2 3 3 3 3 4 4 5 5
8 7 7 7 8 8 7 6 4 2 2 1 2 2 1 1 1 1 1 1 1 1 1 2 2 2 1 1 1 1 1 1 1 2 3 4 5 6 6 5 5 5 6
9 8 8 8 9 9 8 7 5 3 2 2 2 2 2 2 1 1 1 1 1 1 2 2 2 2 2 2 2 2 2 4 5 6 6 6 6 6 5 6 5 6 6
8 8 8 8 8 9 9 9 7 5 3 3 3 3 2 2 2 2 2 2 2 2 2 3 3 4 4 6 6 6 6 6 7 7 6 5 7 10 7 6 5 6 8
6 8 8 9 9 9 10 10 9 7 5 3 4 3 4 5 5 4 5 5 6 5 5 7 8 8 10 10 9 7 7 7 7 7 7 7 11 9 9 9 8 7 7
6 6 6 7 8 8 9 10 9 9 7 5 5 8 8 9 8 9 10 11 10 10 10 9 9 9 9 10 10 10 7 8 8 8 8 8 9 10 8 9 9 9 9
6 6 5 5 7 8 8 8 8 10 9 8 8 9 8 9 11 11 12 11 10 9 9 8 8 9 10 11 11 12 8 8 8 8 9 9 10 10 10 9 10 10 9
4 4 4 4 7 8 8 9 9 10 10 10 10 11 10 12 12 12 11 11 11 11 10 11 11 12 12 11 11 11 10 11 11 11 11 10 11 11 10 11 12 11 11
3 4 5 6 8 8 9 10 10 10 10 10 11 11 11 12 12 11 12 13 11 12 12 13 12 13 12 12 11 11 12 13 13 12 12 13 11 11 10 11 12 12 11
3 3 5 7 7 9 10 10 10 11 9 11 12 12 12 13 12 13 14 13 12 12 13 13 13 13 13 12 11 12 13 12 13 12 12 12 11 11 10 10 12 11 11
4 5 6 8 7 10 10 10 10 9 11 11 12 13 13 13 13 14 13 13 13 13 13 14 14 14 14 13 11 11 11 11 13 13 12 12 11 11 10 11 10 10 11
5 8 8 8 9 11 10 11 10 12 12 13 14 14 14 14 13 13 13 13 13 12 13 14 14 15 14 13 12 11 11 11 12 12 12 11 11 12 12 12 12 12 12
9 11 12 12 12 12 12 11 13 13 14 14 14 15 14 14 14 13 13 12 12 13 13 14 14 15 15 14 15 14 12 12 12 11 12 12 12 12 13 13 12 12 12
13 14 13 12 13 13 13 14 14 14 14 14 15 15 14 14 14 14 13 13 13 12 13 14 14 15 15 14 14 14 13 12 12 12 12 12 12 12 12 12 12 12 12
16 16 16 15 16 15 15 15 14 14 14 15 15 15 14 14 14 14 15 14 14 13 13 13 13 15 13 13 13 13 12 12 11 13 13 13 12 12 12 13 13 12 13

GFSMW_con_lsi_141.txt.gz
Lid_Strength_Index
3 3 2 1 1 1 1 1 1 1 0 1 1 1 1 0 0 -1 -1 -1 -0 -1 -1 -1 -1 -0 -0 0 -0 0 1 1 0 1 1 1 0 0 -0 1 1 0 1
5 4 3 2 2 2 1 1 1 1 1 1 1 0 1 0 0 -0 -1 -1 -1 -1 -1 -1 -0 -0 0 0 0 0 1 1 1 2 2 5 3 1 1 0 0 1 0
6 5 4 3 2 2 2 1 1 1 1 0 0 0 0 0 1 1 0 -0 -1 -1 -1 -1 -0 -0 -0 0 0 0 1 2 1 1 2 5 6 3 1 1 1 1 1
4 4 3 3 2 2 1 1 1 1 1 0 1 1 2 3 1 1 0 0 -1 -1 -1 -1 -1 -0 -0 0 0 0 0 1 2 1 1 1 2 5 5 2 2 1 1
4 4 3 3 2 2 2 1 1 1 1 1 1 1 2 1 1 1 1 0 -0 -0 -0 -1 -0 -0 -0 0 0 0 1 1 1 2 2 2 2 2 4 5 3 1 2
4 3 3 3 3 2 2 1 1 1 1 1 1 1 2 2 2 1 1 1 1 0 -0 -0 -0 -0 -0 0 0 1 0 1 1 1 1 2 3 3 3 4 4 4 2
5 4 3 4 4 4 2 2 2 2 1 1 1 1 1 1 2 2 1 1 1 1 1 0 0 0 -0 -0 0 0 0 0 1 1 1 1 1 1 2 3 4 4 3
4 4 3 3 4 4 3 2 2 2 2 1 1 1 1 1 1 1 1 1 1 1 0 0 0 -0 -0 1 1 0 0 0 1 1 1 1 1 1 2 3 3 5 4
4 4 5 3 3 3 3 2 2 2 2 1 1 1 1 1 1 1 1 1 1 0 0 0 1 1 1 1 0 1 1 0 1 1 1 1 1 1 1 2 2 4 6
4 4 3 4 3 2 2 3 2 2 2 1 1 1 1 1 1 1 1 1 1 0 1 1 1 1 0 0 0 1 1 2 2 2 2 2 2 2 1 2 2 3 3
4 4 4 3 3 2 3 4 3 2 2 2 1 1 1 1 1 1 1 1 1 1 1 1 1 1 1 0 1 1 2 2 2 2 3 3 2 2 2 2 2 3 3
5 6 5 5 4 4 3 4 4 4 2 2 2 2 1 1 1 1 1 1 1 1 1 1 1 1 1 1 1 2 2 3 3 3 3 3 3 2 2 3 4 4 5
7 6 6 6 6 5 5 5 5 4 2 2 2 2 2 2 2 1 1 1 1 1 1 1 1 1 1 1 1 1 2 2 2 3 3 3 3 4 5 5 5 6 6
7 7 6 6 6 6 6 6 6 4 3 2 2 2 2 2 2 1 1 1 1 1 1 1 1 1 1 2 2 2 2 2 3 3 3 4 5 5 6 6 6 7 7
6 5 5 5 5 6 7 7 7 6 3 3 2 2 2 1 1 2 1 1 1 1 1 1 1 2 2 3 3 4 3 5 6 7 6 6 8 9 7 6 7 7 9
5 5 5 6 6 6 6 7 8 7 4 3 3 2 2 2 2 2 2 3 3 2 3 3 3 4 8 10 9 6 6 7 8 8 9 9 12 10 10 9 9 8 8
5 5 5 5 5 6 6 7 7 7 7 5 4 5 4 5 4 6 7 8 7 8 8 7 8 8 9 11 10 10 7 7 7 8 9 10 10 11 9 10 10 10 9
5 5 4 4 4 4 5 6 7 8 7 7 6 6 8 8 10 9 8 10 10 9 10 10 10 11 11 11 11 11 8 8 8 9 10 11 11 11 12 11 12 12 11
4 4 3 4 3 3 5 7 8 8 9 9 8 8 8 9 11 10 10 10 11 11 10 11 11 11 12 11 11 10 10 11 12 12 12 12 12 12 11 13 13 13 12
3 3 3 3 3 3 5 8 9 9 10 10 9 9 9 10 10 10 11 14 11 12 12 13 12 12 12 11 11 10 12 13 13 14 14 14 13 12 11 13 13 13 13
4 3 3 3 3 4 7 9 9 10 9 10 11 11 10 10 9 11 13 12 13 13 13 13 13 13 12 12 11 11 13 13 13 14 14 14 12 12 11 11 13 12 13
9 7 4 4 4 5 8 8 9 8 10 10 11 12 12 12 12 13 14 13 13 14 14 14 14 14 14 13 11 11 11 12 13 14 14 14 13 12 11 11 11 10 12
12 11 10 9 6 8 9 9 8 10 11 11 12 13 13 13 13 13 14 13 13 13 14 14 14 14 14 13 12 11 11 12 14 14 13 12 12 11 11 11 10 12 12
14 14 14 13 11 10 12 10 11 12 12 12 13 13 13 13 13 13 13 12 12 12 13 14 14 14 14 14 13 13 13 13 14 14 13 13 13 13 13 13 12 12 12
16 16 16 15 15 13 13 14 13 13 13 13 13 13 13 14 13 13 13 12 12 12 13 13 13 14 15 14 13 13 13 14 14 14 14 14 14 14 13 13 13 14 14
18 18 17 17 17 16 15 15 14 14 14 14 14 13 13 13 13 13 14 13 13 12 12 12 13 14 13 13 13 13 13 13 13 14 15 14 14 14 14 14 14 13 14

GFSMW_con_lsi_147.txt.gz
Lid_Strength_Index
6 5 3 2 2 2 2 2 2 2 2 2 3 3 2 2 2 2 1 1 1 1 2 3 3 3 3 3 3 3 4 3 2 3 2 1 1 1 2 2 3 3 3
6 5 5 3 2 2 2 2 2 1 2 1 2 2 2 2 2 2 2 1 2 1 1 2 2 3 3 3 3 3 4 4 2 3 4 5 4 3 2 3 2 3 3
6 6 5 5 2 2 2 2 2 1 1 1 1 2 2 2 2 2 2 2 1 2 1 1 1 2 2 3 2 3 3 3 3 2 4 6 6 6 4 3 2 3 3
5 6 6 6 3 2 2 1 1 1 1 1 2 2 3 3 2 1 1 2 2 2 2 2 1 1 1 2 2 2 2 2 3 3 2 3 4 7 6 5 4 4 3
5 5 5 5 6 2 2 2 1 1 1 1 1 2 2 2 2 1 1 2 2 2 2 2 2 1 1 1 1 2 2 2 2 2 4 3 5 5 5 6 5 5 4
6 5 4 4 6 6 2 2 2 2 1 1 1 2 2 2 2 3 2 2 2 2 2 2 2 1 1 1 1 2 2 2 1 1 2 3 4 5 4 5 6 6 5
7 6 6 7 6 6 5 2 2 2 1 1 1 1 1 2 2 2 3 3 2 2 2 2 2 2 1 1 1 1 2 2 2 2 2 1 3 5 4 5 6 7 5
6 7 6 6 7 6 5 2 2 2 2 2 2 1 1 1 2 2 2 2 3 2 1 2 2 2 2 2 1 1 1 1 2 2 1 1 1 3 4 4 5 5 5
7 7 6 6 6 6 5 3 2 2 2 2 2 1 1 1 2 1 2 2 2 2 1 1 2 2 3 3 3 3 2 1 1 1 1 2 2 3 3 3 2 4 6
8 7 7 6 6 6 5 4 3 2 2 2 1 2 1 1 1 1 1 2 2 2 2 2 2 3 3 3 2 2 3 3 1 1 2 2 3 2 2 2 2 3 4
7 8 8 8 7 6 6 5 4 4 2 2 2 2 2 1 1 1 1 1 1 1 2 2 2 2 2 2 2 2 3 3 2 2 2 2 2 2 3 3 3 3 3
8 8 9 8 7 7 7 6 5 5 4 3 2 2 2 2 2 2 1 1 1 1 1 2 2 2 2 2 3 3 3 3 3 3 2 2 3 3 3 4 3 3 3
7 8 8 9 8 8 7 7 6 6 6 5 3 2 2 2 2 2 1 1 1 1 1 2 2 2 2 2 2 2 3 3 3 3 3 3 3 3 4 4 4 4 3
7 7 7 8 7 7 7 8 7 7 6 6 5 4 2 2 2 1 1 2 1 2 2 2 2 2 2 2 3 2 3 3 3 3 3 3 3 4 4 4 4 4 5
7 8 8 7 7 6 6 7 8 7 7 7 6 5 3 2 2 2 2 2 2 2 2 2 2 2 2 2 3 3 3 3 3 4 4 3 5 8 5 4 4 6 8
10 9 9 9 9 9 9 8 6 7 7 8 7 5 4 4 4 3 3 3 3 3 3 2 2 3 3 6 7 4 3 3 4 5 5 4 10 9 9 8 7 6 7
11 10 10 10 10 10 9 10 10 8 6 8 8 8 6 6 5 4 5 6 4 3 4 3 3 3 3 8 9 9 3 3 4 4 5 7 8 10 8 10 10 9 9
12 11 11 11 11 10 10 10 11 11 9 8 9 9 9 8 8 9 7 6 6 5 5 4 3 3 3 9 9 10 3 5 4 4 6 7 10 11 11 11 12 13 11
13 13 12 12 12 11 11 12 12 12 11 10 10 10 10 10 10 10 8 6 7 6 5 5 5 4 5 10 10 10 5 6 8 6 7 8 10 12 11 12 13 14 14
13 13 13 13 14 13 13 13 14 14 12 11 11 10 11 12 11 10 9 8 7 6 7 9 7 9 5 10 10 9 7 12 12 15 13 14 11 12 11 12 13 15 15
14 14 15 15 15 14 14 15 15 15 14 14 13 12 11 12 11 10 10 9 8 10 10 10 11 12 11 11 10 10 11 10 14 13 15 14 12 11 11 12 13 13 14
16 16 16 16 15 15 15 15 16 15 14 15 14 13 12 12 12 12 11 11 11 10 10 11 11 11 12 12 10 10 9 10 11 13 13 14 12 12 12 13 12 12 14
17 17 17 17 17 16 16 16 16 15 16 16 15 14 12 12 12 12 12 12 11 10 10 10 9 10 13 12 11 10 11 11 13 13 13 13 12 12 12 12 12 14 14
19 18 19 20 20 19 18 18 17 17 18 18 16 14 13 13 12 12 12 12 11 10 10 10 10 11 13 12 12 12 12 13 14 13 14 13 13 12 13 13 13 14 14
20 20 21 21 22 21 20 20 19 19 20 19 17 14 14 13 13 12 12 12 11 10 10 10 10 12 13 12 12 12 13 13 13 14 14 14 14 14 14 14 14 14 14
21 21 22 22 23 23 23 21 20 20 21 20 18 14 13 13 13 13 13 11 11 11 10 10 10 13 10 11 11 11 11 12 12 14 14 15 15 15 15 15 15 14 15